Manatee Technical College FL US WEATHERSTEM current weather conditions

sailwx.info

Air temperature 27.7° C
Dewpoint 25.2° C

Last reported at 2020-Aug-05 13:00 UTC.
Time now 2020-Aug-05 14:05 UTC

Location: N 27°27' W 082°29'.
View on Google Maps.

See reports from other nearby stations

  
Tides and Currents Weather Stations Pressure Air Temp Water Temp Dewpoint Dewpoint Depression Visibility Wind Speed Wind Dir Waves Ship Positions
date/time (UTC)wind fromknots sea level pressurealtimeterstation pressurevisibilityair tempwater tempwave heightnotes
2020-Aug-05 13:00 27.7
2020-Aug-05 12:50 005 0 gusting 3 27.2
2020-Aug-05 12:40 005 2 gusting 3 26.8
2020-Aug-05 12:30 26.2
2020-Aug-05 12:20 25.7
2020-Aug-05 12:10 005 1 gusting 3 25.3
2020-Aug-05 12:00 24.9
2020-Aug-05 11:50 005 0 gusting 5 24.7
2020-Aug-05 11:40 005 2 gusting 3 24.5
2020-Aug-05 11:30 005 1 gusting 3 24.4
2020-Aug-05 11:20 005 0 gusting 3 24.3
2020-Aug-05 11:10 005 1 gusting 3 24.2
2020-Aug-05 11:00 005 1 gusting 2 24.2
2020-Aug-05 10:50 24.1
2020-Aug-05 10:40 005 2 gusting 3 24.1
2020-Aug-05 10:30 005 0 gusting 3 24.2
2020-Aug-05 10:20 005 1 gusting 3 24.2
2020-Aug-05 10:10 005 2 gusting 4 24.2
2020-Aug-05 10:00 005 2 gusting 5 24.2
2020-Aug-05 09:50 005 2 gusting 4 24.2
2020-Aug-05 09:40 005 2 gusting 3 24.2
2020-Aug-05 09:30 005 1 gusting 6 24.3
2020-Aug-05 09:20 005 3 gusting 5 24.3
2020-Aug-05 09:10 005 2 gusting 4 24.3
2020-Aug-05 09:00 005 2 gusting 3 24.3
2020-Aug-05 08:50 005 1 gusting 5 24.4
2020-Aug-05 08:40 005 2 gusting 5 24.4
2020-Aug-05 08:30 005 3 gusting 7 24.4
2020-Aug-05 08:20 005 4 gusting 5 24.6
2020-Aug-05 08:10 005 1 gusting 4 24.7
2020-Aug-05 08:00 005 3 gusting 5 24.7
2020-Aug-05 07:50 005 1 gusting 4 24.7
2020-Aug-05 07:40 005 2 gusting 5 24.8
2020-Aug-05 07:30 005 2 gusting 6 24.9
2020-Aug-05 07:10 005 3 gusting 6 25.1
2020-Aug-05 07:00 005 3 gusting 4 25.1
2020-Aug-05 06:50 005 1 gusting 3 25.3
2020-Aug-05 06:40 25.5
2020-Aug-05 06:30 005 1 gusting 2 25.8
2020-Aug-05 06:20 25.8
2020-Aug-05 06:10 25.6
2020-Aug-05 06:00 25.4
2020-Aug-05 05:50 25.5
2020-Aug-05 05:40 25.5
2020-Aug-05 05:30 25.5
2020-Aug-05 05:20 005 1 gusting 2 25.5
2020-Aug-05 05:10 005 1 gusting 3 25.4
2020-Aug-05 05:00 005 3 gusting 4 25.4
2020-Aug-05 04:50 005 2 gusting 3 25.4
2020-Aug-05 04:40 005 2 gusting 3 25.5
2020-Aug-05 04:30 005 2 gusting 3 25.5
2020-Aug-05 04:20 005 0 gusting 3 25.6
2020-Aug-05 04:10 005 0 gusting 3 25.6
2020-Aug-05 04:00 005 1 gusting 3 25.6
2020-Aug-05 03:50 005 1 gusting 4 25.6
2020-Aug-05 03:40 005 1 gusting 5 25.6
2020-Aug-05 03:30 005 4 gusting 6 25.6
2020-Aug-05 03:20 005 4 gusting 5 25.7
2020-Aug-05 03:10 005 4 gusting 7 25.8
2020-Aug-05 03:00 005 2 gusting 4 25.9
2020-Aug-05 02:50 005 2 gusting 3 26.0
2020-Aug-05 02:40 005 2 gusting 4 26.1
2020-Aug-05 02:30 005 3 gusting 3 26.2
2020-Aug-05 02:20 005 0 gusting 3 26.3
2020-Aug-05 02:00 005 1 gusting 1 26.3
2020-Aug-05 01:50 26.3
2020-Aug-05 01:40 005 1 gusting 2 26.3
2020-Aug-05 01:30 005 2 gusting 4 26.4
2020-Aug-05 01:10 005 3 gusting 7 26.6
2020-Aug-05 01:00 005 5 gusting 7 26.8
2020-Aug-05 00:50 005 4 gusting 7 26.8
2020-Aug-05 00:40 005 5 gusting 11 26.8
2020-Aug-05 00:30 005 7 gusting 11 27.0
2020-Aug-05 00:20 005 4 gusting 14 27.6
2020-Aug-05 00:10 005 6 gusting 13 28.6
2020-Aug-05 00:00 005 12 gusting 16 30.2
2020-Aug-04 23:50 31.6
2020-Aug-04 23:40 31.7
2020-Aug-04 23:30 005 3 gusting 7 31.7
2020-Aug-04 23:20 005 5 gusting 7 31.7
2020-Aug-04 23:10 005 5 gusting 9 31.8
2020-Aug-04 22:50 005 5 gusting 9 32.0
2020-Aug-04 22:40 005 6 gusting 11 32.2
2020-Aug-04 22:30 005 6 gusting 9 32.3
2020-Aug-04 22:20 005 4 gusting 8 32.3
2020-Aug-04 22:10 005 5 gusting 11 32.4
2020-Aug-04 22:00 005 5 gusting 10 32.3
2020-Aug-04 21:50 005 5 gusting 10 32.3
2020-Aug-04 21:40 005 10 gusting 10 32.4
2020-Aug-04 21:30 005 5 gusting 10 32.6
2020-Aug-04 21:10 005 5 gusting 11 32.5
2020-Aug-04 21:00 005 6 gusting 13 32.3
2020-Aug-04 20:50 005 9 gusting 14 32.7
2020-Aug-04 20:40 005 6 gusting 12 33.1
2020-Aug-04 20:30 005 12 gusting 13 32.9
2020-Aug-04 20:20 005 7 gusting 13 32.7
2020-Aug-04 20:10 005 10 gusting 13 32.6
2020-Aug-04 20:00 005 5 gusting 13 32.6
2020-Aug-04 19:50 005 9 gusting 12 33.0
2020-Aug-04 19:40 005 4 gusting 11 33.4
2020-Aug-04 19:30 005 7 gusting 11 33.4
2020-Aug-04 19:20 005 3 gusting 10 33.7
2020-Aug-04 19:10 005 3 gusting 10 33.6
2020-Aug-04 19:00 005 6 gusting 8 33.3
2020-Aug-04 18:50 005 5 gusting 6 33.3
2020-Aug-04 18:40 005 3 gusting 9 33.3
2020-Aug-04 18:30 005 2 gusting 8 32.9
2020-Aug-04 18:20 005 2 gusting 11 32.4
2020-Aug-04 18:10 005 4 gusting 7 32.8
2020-Aug-04 18:00 005 6 gusting 7 32.6
2020-Aug-04 17:50 005 7 gusting 9 32.7
2020-Aug-04 17:40 005 3 gusting 8 32.6
2020-Aug-04 17:30 005 4 gusting 9 32.0
2020-Aug-04 17:20 005 4 gusting 7 32.1
2020-Aug-04 17:10 005 2 gusting 6 31.4
2020-Aug-04 17:00 005 2 gusting 12 30.9
2020-Aug-04 16:50 005 6 gusting 9 31.6
2020-Aug-04 16:40 005 3 gusting 5 32.3
2020-Aug-04 16:30 005 2 gusting 4 31.2
2020-Aug-04 16:20 005 0 gusting 5 30.2
2020-Aug-04 16:10 005 1 gusting 4 29.2
2020-Aug-04 16:00 005 0 gusting 4 28.3
2020-Aug-04 15:50 005 4 gusting 5 27.8
2020-Aug-04 15:40 005 1 gusting 7 28.7
2020-Aug-04 15:30 005 7 gusting 7 31.4
2020-Aug-04 15:20 005 1 gusting 4 31.9
2020-Aug-04 15:10 005 2 gusting 5 31.1
2020-Aug-04 15:00 29.9
2020-Aug-04 14:50 005 0 gusting 5 29.0
2020-Aug-04 14:40 005 2 gusting 3 29.1
2020-Aug-04 14:30 29.2
2020-Aug-04 14:20 005 5 gusting 6 29.4
2020-Aug-04 14:10 005 4 gusting 8 30.1
2020-Aug-04 14:00 005 5 gusting 7 31.7
2020-Aug-04 13:50 32.8
2020-Aug-04 13:40 32.0
2020-Aug-04 13:30 31.7
2020-Aug-04 13:20 31.0
2020-Aug-04 13:10 30.6
2020-Aug-04 13:00 30.4
2020-Aug-04 12:50 29.8
2020-Aug-04 12:30 28.8
2020-Aug-04 12:20 28.4
2020-Aug-04 12:10 28.0
2020-Aug-04 12:00 27.8
2020-Aug-04 11:50 27.4
2020-Aug-04 11:40 27.2
2020-Aug-04 11:30 27.0
2020-Aug-04 11:20 26.9
2020-Aug-04 11:10 005 1 gusting 2 27.0
2020-Aug-04 11:00 27.0
2020-Aug-04 10:50 27.1
2020-Aug-04 10:40 27.1
2020-Aug-04 10:30 27.1
2020-Aug-04 10:20 27.2
2020-Aug-04 10:00 27.2
2020-Aug-04 09:50 27.3
2020-Aug-04 09:40 27.3
2020-Aug-04 09:30 27.3
2020-Aug-04 09:20 27.4
2020-Aug-04 09:10 27.4
2020-Aug-04 09:00 27.4
2020-Aug-04 08:50 27.4
2020-Aug-04 08:40 27.4
2020-Aug-04 08:30 27.4
2020-Aug-04 08:20 27.4
2020-Aug-04 08:10 005 1 gusting 2 27.4
2020-Aug-04 08:00 005 0 gusting 1 27.4
2020-Aug-04 07:50 005 0 gusting 0 27.4
2020-Aug-04 07:40 27.4
2020-Aug-04 07:30 27.5
2020-Aug-04 07:20 27.6
2020-Aug-04 07:10 27.7
2020-Aug-04 07:00 27.7
2020-Aug-04 06:50 27.8
2020-Aug-04 06:40 27.8
2020-Aug-04 06:30 27.9
2020-Aug-04 06:20 27.7
2020-Aug-04 06:10 27.7
2020-Aug-04 06:00 27.7
2020-Aug-04 05:50 27.7
2020-Aug-04 05:40 27.8
2020-Aug-04 05:30 27.9
2020-Aug-04 05:20 27.9
2020-Aug-04 05:10 27.9
2020-Aug-04 05:00 28.0
2020-Aug-04 04:50 28.2
2020-Aug-04 04:40 28.2
2020-Aug-04 04:30 28.3
2020-Aug-04 04:20 28.3
2020-Aug-04 04:10 28.4
2020-Aug-04 04:00 28.6
2020-Aug-04 03:50 28.7
2020-Aug-04 03:40 28.7
2020-Aug-04 03:30 005 0 gusting 2 28.7
2020-Aug-04 03:20 28.8
2020-Aug-04 03:10 005 0 gusting 2 28.8
2020-Aug-04 03:00 005 0 gusting 1 29.0
2020-Aug-04 02:50 29.0
2020-Aug-04 02:40 29.1
2020-Aug-04 02:30 005 1 gusting 1 29.2
2020-Aug-04 02:20 005 1 gusting 1 29.4
2020-Aug-04 02:10 29.7
2020-Aug-04 02:00 29.7
2020-Aug-04 01:50 29.7
2020-Aug-04 01:40 29.8
2020-Aug-04 01:30 005 0 gusting 4 29.8
2020-Aug-04 01:20 005 1 gusting 3 29.9
2020-Aug-04 01:10 005 0 gusting 3 29.9
2020-Aug-04 01:00 005 1 gusting 3 30.1
2020-Aug-04 00:50 005 1 gusting 4 30.1
2020-Aug-04 00:40 005 2 gusting 6 30.1
2020-Aug-04 00:30 005 1 gusting 5 30.2
2020-Aug-04 00:20 005 3 gusting 4 30.4
2020-Aug-04 00:10 005 3 gusting 5 30.7
2020-Aug-04 00:00 005 1 gusting 5 30.9
2020-Aug-03 23:50 005 2 gusting 8 31.1
2020-Aug-03 23:40 005 3 gusting 7 31.3
2020-Aug-03 23:30 005 3 gusting 6 31.6
2020-Aug-03 23:20 005 3 gusting 7 31.7
2020-Aug-03 23:10 005 5 gusting 8 31.9
2020-Aug-03 23:00 005 3 gusting 7 32.1
2020-Aug-03 22:50 005 6 gusting 9 32.2
2020-Aug-03 22:40 005 2 gusting 8 32.3
2020-Aug-03 22:30 005 3 gusting 8 32.4
2020-Aug-03 22:20 005 4 gusting 8 32.6
2020-Aug-03 22:10 005 3 gusting 9 32.8
2020-Aug-03 22:00 005 3 gusting 6 32.9
2020-Aug-03 21:50 005 4 gusting 10 32.8
2020-Aug-03 21:40 005 6 gusting 10 32.9
2020-Aug-03 21:30 005 2 gusting 8 32.8
2020-Aug-03 21:20 005 4 gusting 10 32.4
2020-Aug-03 21:10 005 6 gusting 11 32.5
2020-Aug-03 21:00 005 6 gusting 11 32.4
2020-Aug-03 20:50 005 7 gusting 12 32.7
2020-Aug-03 20:40 005 5 gusting 9 33.0
2020-Aug-03 20:30 005 4 gusting 10 32.8
2020-Aug-03 20:20 005 4 gusting 11 33.1
2020-Aug-03 20:10 005 2 gusting 12 33.1
2020-Aug-03 20:00 005 6 gusting 9 33.0
2020-Aug-03 19:50 005 6 gusting 11 32.8
2020-Aug-03 19:40 005 8 gusting 11 32.9
2020-Aug-03 19:30 005 8 gusting 11 32.9
2020-Aug-03 19:20 005 4 gusting 10 32.6
2020-Aug-03 19:10 005 9 gusting 11 32.9
2020-Aug-03 19:00 005 9 gusting 13 32.9
2020-Aug-03 18:50 005 5 gusting 13 32.8
2020-Aug-03 18:40 005 6 gusting 11 33.1
2020-Aug-03 18:30 005 4 gusting 13 32.9
2020-Aug-03 18:20 005 7 gusting 10 32.8
2020-Aug-03 18:10 005 6 gusting 10 32.6
2020-Aug-03 18:00 005 7 gusting 11 32.3
2020-Aug-03 17:50 005 8 gusting 8 32.8
2020-Aug-03 17:40 005 4 gusting 11 32.7
2020-Aug-03 17:30 005 8 gusting 10 32.7
2020-Aug-03 17:20 005 8 gusting 12 32.5
2020-Aug-03 17:10 005 8 gusting 9 33.3
2020-Aug-03 17:00 005 4 gusting 11 32.8
2020-Aug-03 16:50 005 1 gusting 12 32.7
2020-Aug-03 16:40 005 6 gusting 12 32.8
2020-Aug-03 16:30 005 3 gusting 9 32.6
2020-Aug-03 16:20 005 1 gusting 9 32.7
2020-Aug-03 16:10 005 0 gusting 8 32.8
2020-Aug-03 16:00 005 2 gusting 10 32.6
2020-Aug-03 15:50 005 2 gusting 8 32.7
2020-Aug-03 15:40 005 4 gusting 7 32.7
2020-Aug-03 15:30 005 5 gusting 8 32.2
2020-Aug-03 15:20 005 2 gusting 7 32.1
2020-Aug-03 15:10 005 1 gusting 8 31.7
2020-Aug-03 15:00 005 3 gusting 8 31.6
2020-Aug-03 14:50 005 3 gusting 5 31.6
2020-Aug-03 14:40 005 3 gusting 5 31.2
2020-Aug-03 14:20 005 1 gusting 5 30.8
2020-Aug-03 14:10 30.7
2020-Aug-03 14:00 30.3